Location: *
(43.0833°N, 13.0500°E)
Time: 16:45:36
(UTC+00:00)

YAOGAN 1 - Pass Details

Date: 15 November 2019
Orbit: 619 x 621 km, 98.0° (Epoch: 06 December)

Event Time Altitude Azimuth Distance (km) Brightness Sun altitude
Rises 16:47:15 0° 138° (SE) 2,886 5.7 -11.6°
Reaches altitude 10° 16:49:38 10° 127° (SE) 1,984 4.8 -12.0°
Maximum altitude 16:53:20 29° 68° (ENE) 1,158 3.4 -12.7°
Drops below altitude 10° 16:57:03 10° 9° (N) 1,996 4.9 -13.4°
Sets 16:59:28 0° 358° (N) 2,907 5.9 -13.8°
